STARLINK-32370, 61635

Orbit data source: Space-Track

STARLINK-32370, 61635 is a payload satellite owned by SpaceX/Seattle (US) in LEO that was launched on Wed, 23 Oct 2024 UTC via an FALCON 9 launch vehicle from the Air Force Eastern Test Range (AFETR). Payload-class satellites include a variety of spacecraft equipped with specific instruments for various scientific and technological missions. These include communications satellites like Starlink; space stations such as the ISS; scientific satellites like the Hubble; Earth observation satellites from companies like Planet Labs, Umbra, and HawkEye 360; GPS; miniature CubeSats for education and research; and military/defense satellites.

Loading next visibility...
Identifier
61635, 2024-191Q
Orbit
LEO
Country
Flag of USUS
Related business
Manufacturer
SpaceX/Seattle
Mission
Operational Commercial Communications
Bus & Motor
STARLINK V2M, Unknown motor
Mass
730 kg wet, ~700 kg dry
Launch date (UTC)
2024-10-23 (11 months ago)
Launch vehicle
FALCON 9
Launch site
Air Force Eastern Test Range (AFETR)
Object type
Payload
Rocket body
Debris
Shape & HBR
Box + 2 Pan, 14.5 m
Radar Cross Section
36.964 m², Large (>1 m²)

Expand to show TLE details & history
Last TLE update: 1 day ago

TLE from 1 day ago
0 STARLINK-32370
1 61635U 24191Q   25259.72009683 -.00003185  00000-0 -10632-3 0  9990
2 61635  43.0047  56.6748 0002274 265.4804  94.5788 15.27556170 50938
Epoch: 2025-09-16T17:16Z
TLE epoch observation values (Epoch: 2025-09-16T17:16:56.366Z)
Latitude
Longitude
161.53359°
Altitude
483.021 km
Speed
7.626 km/s
True Right ascension
03h 46m 41s
True Declination
0° 00' 00"
Sunlit
Object was in full shadow at epoch
Visualization orbit readout
Latitude
Unknown
Longitude
Unknown
Altitude
Unknown
Speed
Unknown
Apparent Right ascension
Unknown
Apparent Declination
Unknown
Sunlit
N/A
Visualization observer readout
Local Sidereal Time
12:59:49
Azimuth
Unknown
Elevation
Unknown
Doppler factor
Unknown
Orbital elements
Apogee altitude
486.626 km
Perigee altitude
483.504 km
Semi-major axis
6,863.202 km
Eccentricity
0.00023
Inclination
43.0047°
RAAN
56.6748°
Arg. of periapsis
265.4804°
True anomaly
94.60477°
Mean anomaly
94.5788°
Eccentric anomaly
94.59179°
Mean motion
3.81727 °/min
Orbital period
94.31 mins
BSTAR
-0.00010632
Loading maneuver chart data...
Computing Atmospheric mass density...
Loading historical data...
Loading historical data...
Loading historical data...
Loading historical data...
Loading historical data...
Loading historical data...
Loading historical data...

Documentation

Showing up to 5 results
|